Location: Sternwarte_Laufen
(47.9344°N, 12.9346°E)
Time: 06:16:32
(UTC+01:00)

BlueWalker 3 - Pass Details

Date: 03 February 2023
Orbit: 497 x 515 km, 53.2° (Epoch: 23 March)

Event Time Altitude Azimuth Distance (km) Brightness Sun altitude
Rises 17:54:20 0° 271° (W) 2,594 7.3 -7.6°
Reaches altitude 10° 17:56:36 10° 279° (W) 1,714 5.9 -8.0°
Maximum altitude 18:00:17 40° 350° (N) 753 2.8 -8.6°
Enters shadow 18:03:44 12° 60° (ENE) 1,628 3.9 -9.1°
